Tracking 19219 objects as of 19-Jul-2018
HD Live streaming from Space Station
objects crossing your sky now

COSMOS 2499

Track COSMOS 2499 now!
10-day predictions
COSMOS 2499 is classified as:


NORAD ID: 39765
Int'l Code: 2014-028E
Perigee: 1,158.7 km
Apogee: 1,511.7 km
Inclination: 82.4 °
Period: 112.2 minutes
Semi major axis: 7706 km
RCS: Unknown
Launch date: May 23, 2014
Source: Commonwealth of Independent States (former USSR) (CIS)
Launch site: PLESETSK MISSILE AND SPACE COMPLEX (PKMTR)
aabbcc
Your satellite tracking list
Your tracking list is empty




NASA's NSSDC Master Catalog

Two Line Element Set (TLE):
1 39765U 14028E   18199.66762934 +.00000151 +00000-0 +53366-3 0  9999
2 39765 082.4376 043.9565 0229019 307.8754 050.1864 12.83341696194596
Source of the keplerian elements: Caltech